www.pogodaiklimat.ru

Погода и климат >> Архив погоды >> Канада >> Нунавут >> Холл Бич


ПОГОДА в Холл Бич

  • Прогноз погоды в Холл Бич
  • Монитор погоды в Холл Бич

АРХИВ ПОГОДЫ в Холл Бич

Время (UTC), дата Ветер
(напр.,м/с)
 
Видим.   Явления Облачность Т
(С)
Тd
(С)
f
(%)
Тe
(С)
Тes
(С)
Комфортность P
(гПа)
Po
(гПа)
Тmin
(С)
Tmax
(С)
R
(мм)
R24
(мм)
S
(см)
06 15.04 З 4 н/о н/о -28.9 -31.7 77 -40 -40 опасность
обморожения
1013.3 1013.2 -29.1 -20.2 4
09 15.04 СЗ 5 н/о н/о -29.9 -32.7 76 -42 -42 опасность
обморожения
1013.5 1013.4
12 15.04 СЗ 6 н/о н/о -29.3 -32.3 75 -43 -43 опасность
обморожения
1013.8 1013.7 -30.8 -20.2 12
15 15.04 З 8 н/о н/о -25.9 -28.8 77 -40 -40 опасность
обморожения
1013.8 1013.7
18 15.04 З 10 н/о н/о -23.8 -26.5 78 -39 -39 опасность
обморожения
1014.0 1013.9 -30.8 -23.8
21 15.04 З 9 н/о н/о -22.9 -25.7 78 -37 -37 опасность
обморожения
1014.4 1014.3
00 16.04 З 6 н/о н/о -24.3 -27.2 77 -37 -37 опасность
обморожения
1015.7 1015.6 -30.8 -22.6
03 16.04 З 4 н/о н/о -27.5 -29.8 81 -38 -38 опасность
обморожения
1016.5 1016.4
06 16.04 З 5 н/о н/о -26.7 -29.0 81 -38 -38 опасность
обморожения
1016.1 1016.0 -30.8 -22.6 22
09 16.04 ЮЗ 4 н/о н/о -25.9 -28.1 82 -36 -36 опасность
обморожения
1016.8 1016.7
12 16.04 ЮЗ 3 н/о н/о -24.8 -27.0 82 -34 -34 опасность
обморожения
1017.4 1017.3 -28.4 -22.6 10
15 16.04 З 4 н/о н/о -23.6 -26.2 79 -34 -34 опасность
обморожения
1017.5 1017.4
18 16.04 З 4 н/о н/о -21.9 -24.8 77 -31 -31 опасность
обморожения
1018.3 1018.2 -28.4 -21.9
21 16.04 З 6 н/о н/о -21.3 -24.0 79 -33 -33 опасность
обморожения
1019.2 1019.1
00 17.04 З 3 н/о н/о -23.3 -26.0 78 -31 -31 опасность
обморожения
1019.8 1019.7 -27.7 -21.2
03 17.04 З 4 н/о н/о -26.9 -29.3 80 -37 -37 опасность
обморожения
1019.6 1019.5
06 17.04 ЮЗ 4 н/о н/о -27.6 -29.8 81 -38 -38 опасность
обморожения
1018.8 1018.7 -28.6 -21.2 20
09 17.04 ЮЗ 4 н/о н/о -30.0 -32.5 79 -41 -41 опасность
обморожения
1018.7 1018.6
12 17.04 ЮЗ 4 н/о н/о -27.9 -30.2 81 -39 -39 опасность
обморожения
1018.0 1017.9 -30.5 -21.2 10
15 17.04 ЮЗ 3 н/о н/о -23.5 -25.5 84 -31 -31 опасность
обморожения
1016.7 1016.6
18 17.04 З 2 н/о н/о -20.4 -23.2 78 -26 -26 1016.1 1016.0 -30.5 -20.4
21 17.04 З 4 н/о н/о -19.0 -21.7 79 -27 -27 1016.0 1015.9
00 18.04 З 2 н/о н/о -21.9 -24.2 82 -28 -28 1016.1 1016.0 -30.5 -18.8
03 18.04 СЗ 3 н/о н/о -26.5 -28.7 82 -36 -36 опасность
обморожения
1015.4 1015.3
06 18.04 СЗ 4 н/о н/о -25.0 -27.1 83 -35 -35 опасность
обморожения
1015.2 1015.1 -30.5 -18.8 15
09 18.04 СЗ 4 н/о н/о -27.5 -29.9 80 -38 -38 опасность
обморожения
1014.9 1014.8
12 18.04 СЗ 4 н/о н/о -25.1 -27.2 83 -35 -35 опасность
обморожения
1014.6 1014.5 -28.3 -18.8 10
15 18.04 СЗ 4 н/о н/о -23.7 -25.6 84 -34 -34 опасность
обморожения
1014.1 1014.0
18 18.04 СЗ 4 н/о н/о -21.0 -22.8 85 -30 -30 1013.9 1013.8 -28.3 -21.0
21 18.04 СЗ 6 н/о н/о -21.3 -23.2 85 -33 -33 опасность
обморожения
1013.6 1013.5
00 19.04 СЗ 6 н/о н/о -23.3 -25.3 84 -35 -35 опасность
обморожения
1013.4 1013.3 -28.3 -20.7
03 19.04 СЗ 6 н/о н/о -27.6 -29.8 81 -40 -40 опасность
обморожения
1012.1 1012.0
06 19.04 СЗ 5 н/о н/о -29.5 -32.0 79 -41 -41 опасность
обморожения
1011.0 1010.9 -29.5 -20.7
09 19.04 СЗ 4 н/о н/о -30.2 -32.9 77 -41 -41 опасность
обморожения
1009.9 1009.8
12 19.04 СЗ 1 н/о н/о -28.1 -30.6 79 -29 -29 1009.0 1008.9 -30.6 -20.7 10
15 19.04 ЮЗ 2 н/о н/о -22.6 -24.4 85 -29 -29 1007.7 1007.6
18 19.04 ЮЗ 2 н/о н/о -18.4 -19.8 89 -24 -24 1006.7 1006.6 -30.6 -18.4
21 19.04 СЗ 4 н/о н/о -19.2 -21.3 83 -27 -27 1005.9 1005.8
00 20.04 СЗ 3 н/о н/о -22.8 -24.8 84 -31 -31 опасность
обморожения
1005.9 1005.8 -30.6 -18.0
03 20.04 З 5 н/о н/о -23.5 -25.4 84 -35 -35 опасность
обморожения
1005.2 1005.1
06 20.04 З 7 н/о н/о -24.7 -26.7 83 -37 -37 опасность
обморожения
1004.9 1004.8 -30.6 -18.0 13
09 20.04 З 7 н/о н/о -24.3 -26.5 82 -37 -37 опасность
обморожения
1005.0 1004.9
12 20.04 СЗ 7 н/о н/о -23.9 -26.2 81 -36 -36 опасность
обморожения
1005.3 1005.2 -25.4 -18.0 10
15 20.04 СЗ 8 н/о н/о -23.1 -25.6 80 -36 -36 опасность
обморожения
1005.7 1005.6
18 20.04 З 8 н/о н/о -23.1 -26.0 77 -37 -37 опасность
обморожения
1006.3 1006.2 -25.4 -22.7
21 20.04 З 9 н/о н/о -23.8 -26.4 79 -38 -38 опасность
обморожения
1007.5 1007.4
00 21.04 З 10 н/о н/о -25.5 -28.3 77 -41 -41 опасность
обморожения
1008.7 1008.6 -25.6 -22.7
03 21.04 З 9 н/о н/о -26.7 -29.4 78 -42 -42 опасность
обморожения
1008.8 1008.7
06 21.04 З 10 н/о н/о -27.1 -29.7 78 -43 -43 опасность
обморожения
1009.4 1009.3 -27.2 -22.7 6
09 21.04 З 10 н/о н/о -27.4 -30.0 78 -43 -43 опасность
обморожения
1010.6 1010.5
12 21.04 З 9 н/о н/о -26.8 -29.7 76 -42 -42 опасность
обморожения
1011.5 1011.4 -27.6 -22.7 10
15 21.04 З 11 н/о н/о -24.4 -26.9 80 -40 -40 опасность
обморожения
1011.5 1011.4
18 21.04 З 8 н/о н/о -21.9 -25.0 76 -35 -35 опасность
обморожения
1011.6 1011.5 -27.6 -21.9
21 21.04 З 7 н/о н/о -21.1 -23.4 82 -33 -33 опасность
обморожения
1011.3 1011.2
00 22.04 ЮЗ 5 н/о н/о -20.2 -21.9 86 -30 -30 1010.0 1009.9 -27.6 -20.2
03 22.04 ЮЗ 5 н/о н/о -19.8 -21.5 86 -29 -29 1008.8 1008.7

 

Местоположение метеостанции Холл Бич (Нунавут, Канада): широта 68.78 долгота -81.25 высота над уровнем моря 8 м.

В архиве по умолчанию представлена погода в Холл Бич за последнюю неделю. Архивные данные за месяц целиком и за предыдущие месяцы, начиная с января 2011 года, Вы можете получить, выбрав интересующий диапазон дат из раскрывающегося списка и нажав кнопку "Ввод!".


*Определитесь, кто Вы:
робот инопланетянин человек

Внимание! Время в таблицах - всемирное. Для получения местного времени необходимо прибавить поправку, которая равна -5 ч.

Смотрите также архив погоды в соседних городах и на ближайших метеорологических станциях:

Погода на Острове Роули (Нунавут, Канада) (95 км)
Погода в Лонгстафф-Блаффе (Нунавут, Канада) (246 км)
Погода в Кам Фор (Нунавут, Канада) (345 км)
Погода в Кугааруке (Нунавут, Канада) (347 км)
Погода в Делавер-Лейксе (Нунавут, Канада) (407 км)
Погода в Понд-Инлете (Нунавут, Канада) (450 км)
Погода в Понд-Инлете (Нунавут, Канада) (452 км)
Погода в Вейджер Бэй (Нунавут, Канада) (476 км)
Погода в Арктик Бей (Нунавут, Канада) (489 км)
Погода в Шеперд-Бее (Нунавут, Канада) (489 км)

Пояснения к столбцам:

Ветер - указаны скорость ветра в м/с - средняя за 10 мин, порывы в срок и между сроками (в фигурных скобках) и направление, откуда дует ветер: С - северный, СВ - северо-восточный, В - восточный, ЮВ - юго-восточный, Ю - южный, ЮЗ - юго-западный, З - западный, СЗ - северо-западный.
Видимость - горизонтальная дальность видимости в метрах или километрах. При видимости от 1 до 10 км при отсутствии осадков обычно наблюдается дымка, при ухудшении видимости до 1 км и менее - туман. В сухую погоду видимость может ухудшаться дымом, пылью или мглою.
Явления - указаны атмосферные явления, наблюдавшиеся в срок или в последний час перед сроком; фигурными скобками обозначены явления, наблюдавшиеся между сроками (за 1-3 часа до срока); квадратными скобками обозначены град или гололедные отложения с указанием их диаметра в мм.
Облачность - указаны через наклонную черту общая и нижняя облачность в баллах и высота нижней границы облаков в метрах; квадратными скобками обозначены формы облаков: Ci - перистые, Cs - перисто-слоистые, Cc - перисто-кучевые, Ac - высококучевые, As - высокослоистые, Sc - слоисто-кучевые, Ns - слоисто-дождевые, Cu - кучевые, Cb - кучево-дождевые. Подробнее классификацию облаков см. в Атласе облаков (PDF).
T - Температура воздуха - температура, измеренная на высоте 2 м над землей.
Td - Температура точки росы - температура, при понижении до которой содержащийся в воздухе водяной пар достигнет насыщения.
f - Относительная влажность воздуха - влажноcть воздуха, измеренная на высоте 2 м над землей.
Te - Эффективная температура - температура, которую ощущает одетый по сезону человек в тени. Характеристика душности погоды. При расчете учитывается влияние влажности воздуха и скорости ветра на теплоощущения человека.
Tes - Эффективная температура на солнце - температура, которую ощущает человек, с поправкой на солнечный нагрев. Характеристика знойности погоды. Зависит от высоты солнца над горизонтом, облачности и скорости ветра. Ночью, в пасмурную погоду, а также при ветре 12 м/с и более поправка равна нулю.
P - Атмосферное давление - приведенное к уровню моря атмосферное давление.
Po - Атмосферное давление - измеренное на уровне метеостанции атмосферное давление.
Tmin - Минимальная температура - минимум температуры воздуха на высоте 2 м над землей.
Tmax - Максимальная температура - максимум температуры воздуха на высоте 2 м над землей.
R - Количество осадков - Количество выпавших осадков за период времени, мм. При наведении курсора мыши на число - период времени, за который выпало указанное количество осадков.
R24 - Количество осадков - Количество выпавших осадков за 24 часа, мм.
S - Снежный покров - Высота снежного покрова, см. При наведении курсора мыши на число - состояние снежного покрова и степень покрытия местности в баллах.